Hourly Weather Snytyshche

Today, 24 January, Sunday

Time Temperature Precipitation Wind Pressure Humidity
00:00 -1°C° 0 mm 4 mps 741 mmHg 93%
01:00 -1°C° 0 mm 4 mps 741 mmHg 94%
02:00 -1°C° 0 mm 4 mps 741 mmHg 95%
03:00 0°C° 0 mm 5 mps 740 mmHg 95%
04:00 +1°C° 0 mm 5 mps 740 mmHg 96%
05:00 +1°C° 0 mm 5 mps 739 mmHg 97%
06:00 +1°C° 0 mm 5 mps 739 mmHg 96%
07:00 +2°C° 0 mm 5 mps 739 mmHg 96%
08:00 +2°C° 0 mm 5 mps 738 mmHg 95%
09:00 +2°C° 0.3 mm 5 mps 738 mmHg 95%
10:00 +2°C° 0.3 mm 6 mps 738 mmHg 95%
11:00 +2°C° 0.3 mm 6 mps 737 mmHg 95%
12:00 +3°C° 1 mm 6 mps 737 mmHg 95%
13:00 +3°C° 1 mm 6 mps 736 mmHg 95%
14:00 +3°C° 1 mm 6 mps 735 mmHg 94%
15:00 +3°C° 0.4 mm 6 mps 735 mmHg 94%
16:00 +3°C° 0.4 mm 6 mps 734 mmHg 93%
17:00 +3°C° 0.4 mm 6 mps 734 mmHg 92%
18:00 +3°C° 0.4 mm 6 mps 734 mmHg 92%
19:00 +2°C° 0.4 mm 7 mps 735 mmHg 93%
20:00 +1°C° 0.4 mm 8 mps 735 mmHg 93%
21:00 +2°C° 0.2 mm 7 mps 736 mmHg 91%
22:00 +2°C° 0.2 mm 6 mps 736 mmHg 89%
23:00 +2°C° 0.2 mm 6 mps 737 mmHg 87%

Tomorrow, 25 January, Monday

Time Temperature Precipitation Wind Pressure Humidity
00:00 +1°C° 0 mm 5 mps 737 mmHg 89%
01:00 0°C° 0 mm 4 mps 738 mmHg 91%
02:00 +1°C° 0 mm 3 mps 739 mmHg 93%
03:00 +1°C° 0 mm 2 mps 739 mmHg 93%
04:00 +1°C° 0 mm 2 mps 739 mmHg 93%
05:00 -1°C° 0 mm 2 mps 739 mmHg 94%
06:00 -1°C° 0 mm 2 mps 739 mmHg 93%
07:00 +1°C° 0 mm 1 mps 740 mmHg 93%
08:00 +1°C° 0 mm 1 mps 740 mmHg 93%
09:00 +2°C° 0 mm 1 mps 740 mmHg 93%
10:00 +2°C° 0 mm 2 mps 740 mmHg 92%
11:00 +2°C° 0 mm 2 mps 740 mmHg 92%
12:00 +2°C° 0 mm 3 mps 740 mmHg 93%
13:00 +2°C° 0 mm 3 mps 739 mmHg 94%
14:00 +2°C° 0 mm 3 mps 739 mmHg 95%
15:00 +1°C° 0 mm 4 mps 738 mmHg 95%
16:00 +1°C° 0 mm 4 mps 737 mmHg 96%
17:00 +1°C° 0 mm 5 mps 737 mmHg 96%
18:00 +2°C° 1.5 mm 5 mps 736 mmHg 96%
19:00 +2°C° 1.5 mm 6 mps 735 mmHg 96%
20:00 +3°C° 1.5 mm 6 mps 734 mmHg 96%
21:00 +3°C° 0.9 mm 6 mps 733 mmHg 95%
22:00 +4°C° 0.9 mm 7 mps 732 mmHg 94%
23:00 +4°C° 0.9 mm 7 mps 731 mmHg 93%

Day after tomorrow, 26 January, Tuesday

Time Temperature Precipitation Wind Pressure Humidity
00:00 +4°C° 0.4 mm 7 mps 731 mmHg 93%
01:00 +3°C° 0.4 mm 6 mps 730 mmHg 93%
02:00 +3°C° 0.4 mm 6 mps 729 mmHg 93%
03:00 +2°C° 0.6 mm 6 mps 729 mmHg 91%
04:00 +2°C° 0.6 mm 6 mps 728 mmHg 88%
05:00 +1°C° 0.6 mm 5 mps 728 mmHg 85%
06:00 0°C° 0 mm 5 mps 728 mmHg 87%
07:00 0°C° 0 mm 4 mps 728 mmHg 89%
08:00 -1°C° 0 mm 4 mps 728 mmHg 91%
09:00 -1°C° 0.2 mm 4 mps 728 mmHg 93%
10:00 -1°C° 0.2 mm 4 mps 728 mmHg 95%
11:00 -2°C° 0.2 mm 4 mps 728 mmHg 96%
12:00 0°C° 0.3 mm 3 mps 729 mmHg 97%
13:00 +1°C° 0.3 mm 2 mps 729 mmHg 97%
14:00 +2°C° 0.3 mm 1 mps 729 mmHg 97%
15:00 +1°C° 0.2 mm 2 mps 730 mmHg 97%
16:00 -1°C° 0.2 mm 2 mps 730 mmHg 97%
17:00 -1°C° 0.2 mm 3 mps 731 mmHg 97%
18:00 -2°C° 0.3 mm 4 mps 731 mmHg 97%
19:00 -2°C° 0.3 mm 5 mps 732 mmHg 96%
20:00 -2°C° 0.3 mm 5 mps 733 mmHg 96%
21:00 -3°C° 0.4 mm 6 mps 733 mmHg 95%
22:00 -3°C° 0.4 mm 7 mps 734 mmHg 94%
23:00 -4°C° 0.4 mm 8 mps 735 mmHg 93%

27 January, Wednesday

Time Temperature Precipitation Wind Pressure Humidity
00:00 -4°C° 0.2 mm 8 mps 735 mmHg 92%
01:00 -5°C° 0.2 mm 8 mps 736 mmHg 91%
02:00 -5°C° 0.2 mm 8 mps 736 mmHg 91%
03:00 -5°C° 0.1 mm 8 mps 737 mmHg 90%
04:00 -4°C° 0.1 mm 7 mps 737 mmHg 90%
05:00 -4°C° 0.1 mm 7 mps 738 mmHg 90%
06:00 -4°C° 0.2 mm 7 mps 738 mmHg 91%
07:00 -4°C° 0.2 mm 6 mps 739 mmHg 92%
08:00 -4°C° 0.2 mm 6 mps 739 mmHg 93%
09:00 -4°C° 0.2 mm 7 mps 740 mmHg 92%
10:00 -3°C° 0.2 mm 7 mps 740 mmHg 90%
11:00 -3°C° 0.2 mm 7 mps 741 mmHg 88%
12:00 -3°C° 0 mm 7 mps 741 mmHg 87%
13:00 -3°C° 0 mm 7 mps 742 mmHg 85%
14:00 -3°C° 0 mm 6 mps 742 mmHg 84%
15:00 -3°C° 0 mm 6 mps 743 mmHg 85%
16:00 -4°C° 0 mm 5 mps 743 mmHg 86%
17:00 -3°C° 0 mm 4 mps 744 mmHg 87%
18:00 -3°C° 0 mm 4 mps 744 mmHg 87%
19:00 -3°C° 0 mm 4 mps 744 mmHg 87%
20:00 -4°C° 0 mm 4 mps 745 mmHg 87%
21:00 -4°C° 0 mm 4 mps 745 mmHg 86%
22:00 -4°C° 0 mm 4 mps 745 mmHg 86%
23:00 -4°C° 0 mm 3 mps 745 mmHg 86%

28 January, Thursday

Time Temperature Precipitation Wind Pressure Humidity
00:00 -4°C° 0 mm 3 mps 745 mmHg 87%
01:00 -4°C° 0 mm 3 mps 745 mmHg 88%
02:00 -4°C° 0 mm 3 mps 745 mmHg 89%
03:00 -4°C° 0 mm 3 mps 745 mmHg 90%
04:00 -5°C° 0 mm 3 mps 745 mmHg 91%
05:00 -5°C° 0 mm 3 mps 745 mmHg 93%
06:00 -5°C° 0 mm 3 mps 745 mmHg 93%
07:00 -4°C° 0 mm 2 mps 746 mmHg 93%
08:00 -4°C° 0 mm 2 mps 746 mmHg 94%
09:00 -5°C° 0 mm 3 mps 746 mmHg 92%
10:00 -4°C° 0 mm 3 mps 746 mmHg 90%
11:00 -4°C° 0 mm 3 mps 746 mmHg 88%
12:00 -2°C° 0 mm 3 mps 746 mmHg 86%
13:00 -2°C° 0 mm 3 mps 745 mmHg 85%
14:00 -2°C° 0 mm 3 mps 745 mmHg 83%
15:00 -2°C° 0 mm 2 mps 745 mmHg 86%
16:00 -3°C° 0 mm 2 mps 745 mmHg 88%
17:00 -3°C° 0 mm 2 mps 745 mmHg 91%
18:00 -3°C° 0 mm 2 mps 745 mmHg 92%
19:00 -4°C° 0 mm 2 mps 745 mmHg 93%
20:00 -4°C° 0 mm 2 mps 745 mmHg 93%

29 January, Friday

Time Temperature Precipitation Wind Pressure Humidity
Show more